Date String (YYYY-MM-DD hh:mm:ss) UTC,Instrument flags,Ambient pressure (hPa),Sample flow (lpm),Bypass flow (lpm),Sample temperature (°C),Ambient temperature (°C),ASC tube jacket temperature (°C),LED temperature (°C),Box temperature (°C),Sample RH (%),Span deviation,Mass concentration (μg/m³),Mass concentration (μg/m³),Mass concentration (μg/m³)
DateTimeUTC,F1_M11,P_M11,Q1_M11,Q2_M11,T1_M11,T2_M11,T3_M11,T4_M11,T5_M11,U1_M11,ZSPAN_M11,X0_M11,X2_M11,X1_M11
2021-10-15 15:00:00,,0832.6,4.99,0.00,23.0,22.3,00.0,32.0,24.9,15.3,-001.5,0010.61,0008.20,0007.73
2021-10-15 15:01:00,,0832.6,5.01,0.00,23.0,22.3,00.0,32.0,24.9,14.4,-001.6,0010.21,0007.76,0007.30
2021-10-15 15:02:00,,0832.7,5.00,0.00,23.0,22.3,00.0,32.0,24.9,14.7,-001.6,0009.90,0007.34,0006.90
2021-10-15 15:03:00,,0832.7,5.00,0.00,23.1,22.3,00.0,32.1,25.0,14.6,-001.5,0009.73,0007.06,0006.59
2021-10-15 15:04:00,,0832.7,4.99,0.00,23.1,22.3,00.0,32.1,25.0,15.0,-001.1,0009.47,0006.82,0006.34
2021-10-15 15:05:00,,0832.8,5.00,0.00,23.1,22.4,00.0,32.1,25.0,15.3,-000.9,0009.28,0006.63,0006.17
2021-10-15 15:06:00,,0832.8,5.00,0.00,23.1,22.4,00.0,32.1,25.0,16.3,-000.3,0009.07,0006.43,0005.99
2021-10-15 15:07:00,,0832.8,4.99,0.00,23.1,22.4,00.0,32.1,25.0,16.3,0000.0,0009.09,0006.28,0005.81
2021-10-15 15:08:00,,0832.8,5.01,0.00,23.2,22.4,00.0,32.1,25.1,14.7,0000.0,0009.09,0006.07,0005.61
2021-10-15 15:09:00,,0832.8,5.00,0.00,23.2,22.4,00.0,32.1,25.1,14.3,0000.0,0009.04,0005.93,0005.46
2021-10-15 15:10:00,,0832.7,5.01,0.00,23.2,22.4,00.0,32.2,25.1,14.2,0000.0,0008.85,0005.75,0005.30
2021-10-15 15:11:00,,0832.8,4.99,0.00,23.2,22.5,00.0,32.2,25.1,15.0,0000.0,0008.80,0005.71,0005.28
2021-10-15 15:12:00,,0832.7,5.00,0.00,23.2,22.5,00.0,32.2,25.1,16.9,0000.0,0009.38,0005.89,0005.44
2021-10-15 15:13:00,,0832.7,5.00,0.00,23.2,22.5,00.0,32.2,25.1,17.3,0000.0,0009.89,0006.13,0005.66
2021-10-15 15:14:00,,0832.7,5.00,0.00,23.3,22.5,00.0,32.2,25.1,17.1,0000.0,0009.93,0006.31,0005.87
2021-10-15 15:15:00,,0832.7,5.01,0.00,23.3,22.5,00.0,32.2,25.1,16.9,0000.0,0009.98,0006.45,0006.04
2021-10-15 15:16:00,,0832.8,4.99,0.00,23.3,22.6,00.0,32.2,25.2,17.2,-000.3,0010.52,0006.59,0006.16
2021-10-15 15:17:00,,0832.7,5.01,0.00,23.3,22.6,00.0,32.2,25.2,17.2,0000.2,0010.72,0006.72,0006.28
2021-10-15 15:18:00,,0832.7,4.99,0.00,23.3,22.6,00.0,32.3,25.2,17.3,0000.5,0010.69,0006.78,0006.34
2021-10-15 15:19:00,,0832.7,5.01,0.00,23.3,22.6,00.0,32.3,25.3,16.3,0000.6,0010.54,0006.92,0006.49
2021-10-15 15:20:00,,0832.7,5.00,0.00,23.4,22.6,00.0,32.3,25.3,16.3,0001.2,0010.83,0007.08,0006.65
2021-10-15 15:21:00,,0832.8,4.99,0.00,23.4,22.6,00.0,32.3,25.3,16.6,0000.7,0011.35,0007.26,0006.82
2021-10-15 15:22:00,,0832.7,5.01,0.00,23.4,22.7,00.0,32.3,25.3,16.0,0000.6,0011.46,0007.40,0006.98
2021-10-15 15:23:00,,0832.7,4.99,0.00,23.4,22.7,00.0,32.4,25.3,16.0,-000.3,0011.51,0007.45,0007.04
2021-10-15 15:24:00,,0832.7,5.00,0.00,23.4,22.7,00.0,32.4,25.3,15.3,-000.8,0011.19,0007.38,0006.98
2021-10-15 15:25:00,,0832.8,5.00,0.00,23.5,22.7,00.0,32.4,25.4,15.5,-000.7,0011.28,0007.29,0006.88
2021-10-15 15:26:00,,0832.8,4.99,0.00,23.5,22.7,00.0,32.4,25.4,15.8,-000.6,0011.34,0007.23,0006.81
2021-10-15 15:27:00,,0832.8,5.01,0.00,23.5,22.7,00.0,32.4,25.4,15.8,-000.2,0010.99,0007.13,0006.73
2021-10-15 15:28:00,,0832.8,4.99,0.00,23.5,22.8,00.0,32.4,25.4,15.1,0000.0,0010.71,0007.06,0006.66
2021-10-15 15:29:00,,0832.7,5.01,0.00,23.5,22.8,00.0,32.4,25.4,15.4,0000.0,0010.58,0006.96,0006.58
2021-10-15 15:30:00,,0832.7,4.99,0.00,23.5,22.8,00.0,32.5,25.4,15.3,0000.0,0010.52,0006.85,0006.50
2021-10-15 15:31:00,,0832.7,5.00,0.00,23.5,22.8,00.0,32.5,25.5,13.9,0000.0,0010.54,0006.73,0006.38
2021-10-15 15:32:00,,0832.7,4.99,0.00,23.6,22.8,00.0,32.5,25.5,14.3,0000.0,0009.89,0006.55,0006.21
2021-10-15 15:33:00,,0832.7,5.00,0.00,23.6,22.8,00.0,32.5,25.5,15.0,0000.0,0009.89,0006.46,0006.09
2021-10-15 15:34:00,,0832.8,4.99,0.00,23.6,22.8,00.0,32.5,25.5,13.9,0000.0,0009.67,0006.37,0005.99
2021-10-15 15:35:00,,0832.7,5.01,0.00,23.6,22.9,00.0,32.5,25.5,11.9,0000.0,0009.32,0006.15,0005.78
2021-10-15 15:36:00,,0832.7,4.99,0.00,23.6,22.9,00.0,32.6,25.5,11.9,0000.0,0009.32,0005.89,0005.55
2021-10-15 15:37:00,,0832.8,5.00,0.00,23.6,22.9,00.0,32.6,25.5,12.2,0000.0,0008.98,0005.64,0005.29
2021-10-15 15:38:00,,0832.8,5.01,0.00,23.6,22.9,00.0,32.6,25.5,11.9,0000.0,0008.68,0005.37,0005.03
2021-10-15 15:39:00,,0832.8,5.01,0.00,23.7,22.9,00.0,32.6,25.5,12.7,0000.0,0008.43,0005.10,0004.79
2021-10-15 15:40:00,,0832.8,4.99,0.00,23.7,22.9,00.0,32.6,25.6,13.8,0000.0,0008.30,0004.93,0004.63
2021-10-15 15:41:00,,0832.8,5.00,0.00,23.7,22.9,00.0,32.6,25.6,13.8,0000.0,0008.13,0004.82,0004.50
2021-10-15 15:42:00,,0832.7,5.00,0.00,23.7,23.0,00.0,32.6,25.6,14.5,0000.0,0007.91,0004.77,0004.44
2021-10-15 15:43:00,,0832.7,5.01,0.00,23.7,23.0,00.0,32.7,25.6,15.8,0000.0,0007.99,0004.82,0004.48
2021-10-15 15:44:00,,0832.7,5.00,0.00,23.8,23.0,00.0,32.7,25.6,15.4,0000.0,0007.93,0004.81,0004.48
2021-10-15 15:45:00,,0832.7,5.00,0.00,23.8,23.0,00.0,32.7,25.7,13.9,0000.0,0007.92,0004.76,0004.43
2021-10-15 15:46:00,,0832.8,5.01,0.00,23.8,23.0,00.0,32.7,25.7,14.8,0000.0,0007.78,0004.80,0004.49
2021-10-15 15:47:00,,0832.7,4.99,0.00,23.8,23.0,00.0,32.7,25.6,15.4,0000.0,0007.51,0004.94,0004.63
2021-10-15 15:48:00,,0832.8,5.00,0.00,23.8,23.0,00.0,32.7,25.7,15.1,0000.0,0008.28,0005.06,0004.78
2021-10-15 15:49:00,,0832.8,5.01,0.00,23.8,23.0,00.0,32.8,25.7,14.6,0000.0,0008.68,0005.18,0004.91
2021-10-15 15:50:00,,0832.9,5.00,0.00,23.8,23.0,00.0,32.8,25.7,14.2,0000.0,0009.13,0005.30,0005.02
2021-10-15 15:51:00,,0832.9,4.99,0.00,23.8,23.1,00.0,32.8,25.7,14.9,0000.0,0009.22,0005.38,0005.10
2021-10-15 15:52:00,,0832.9,5.00,0.00,23.9,23.1,00.0,32.8,25.7,14.8,0000.0,0009.71,0005.43,0005.12
2021-10-15 15:53:00,,0832.9,5.01,0.00,23.9,23.1,00.0,32.8,25.8,15.0,0000.0,0009.87,0005.43,0005.13
2021-10-15 15:54:00,,0832.8,5.00,0.00,23.9,23.1,00.0,32.8,25.9,15.1,0000.0,0010.20,0005.38,0005.11
2021-10-15 15:55:00,,0832.8,5.01,0.00,23.9,23.1,00.0,32.9,25.9,14.9,0000.0,0010.20,0005.33,0005.05
2021-10-15 15:56:00,,0832.8,4.99,0.00,23.9,23.2,00.0,32.9,25.9,14.4,0000.0,0010.27,0005.33,0005.03
2021-10-15 15:57:00,,0832.8,5.00,0.00,23.9,23.2,00.0,32.9,25.9,14.5,0000.0,0010.73,0005.40,0005.08
2021-10-15 15:58:00,,0832.9,4.99,0.00,23.9,23.2,00.0,32.9,25.9,14.7,0000.0,0010.86,0005.43,0005.07
2021-10-15 15:59:00,,0832.8,5.00,0.00,24.0,23.3,00.0,32.9,25.9,15.3,0000.0,0010.64,0005.43,0005.05
